[[{"header":{"parameterUnit":"m.s-1","parameterCategory":1,"la1":30.2991,"la2":30.254,"lo1":-89.0895,"lo2":-89.0444,"dy":0.0017,"dx":0.0017,"nx":28,"ny":28,"refTime":"2024-05-08T09:00:00:Z","depth":0,"parameterNumber":2,"parameterNumberName":"U-component_of_WINDS"},"data":[0,0,0,0,0,0,0,0,0,0,0,0,0,0,0,0,0,0,0,0,0,0,0,0,0,0,0,0,0,0,0,0,0,0,0,0,0,0,0,0,0,0,0,0,0,0,0,0,0,0,0,0,0,0,0,0,0,0,-2.805,-2.805,0,-2.8066,-2.8066,-2.8066,-2.8036,-2.8035,-2.8034,-2.8033,-2.8048,-2.8049,-2.805,0,0,0,0,0,0,0,0,0,0,0,0,0,-2.7992,-2.7994,-2.805,-2.805,-2.805,-2.8066,-2.8066,-2.8066,-2.8036,-2.8035,-2.8034,-2.8033,-2.8047,-2.8049,-2.805,0,0,0,0,0,0,0,0,0,0,0,0,0,-2.8014,-2.7994,-2.805,-2.8037,-2.8036,-2.8066,-2.8066,-2.8066,-2.8036,-2.8035,-2.8033,-2.8032,-2.8047,-2.8049,-2.8051,-2.8092,0,0,-2.8057,-2.8057,0,0,0,0,0,0,0,0,-2.8013,-2.8016,-2.8039,-2.8038,-2.8037,-2.8047,-2.8051,-2.8075,-2.8037,-2.8036,-2.8033,-2.8031,-2.8049,-2.805,-2.8057,-2.8093,-2.8094,-2.8057,-2.8058,-2.8059,-2.8059,0,0,0,0,0,0,0,-2.8011,-2.8015,-2.8056,-2.8039,-2.8038,-2.803,-2.8032,-2.8055,-2.8051,-2.8036,-2.8034,-2.8036,-2.8048,-2.8055,-2.8057,-2.8094,-2.8057,-2.8058,-2.806,-2.806,-2.8165,-2.8167,0,0,0,0,0,0,-2.8011,-2.8014,-2.8056,-2.8057,-2.8021,-2.8033,-2.8034,-2.8046,-2.805,-2.805,-2.8038,-2.8035,-2.8052,-2.8054,-2.8057,-2.8106,-2.8059,-2.8061,-2.8062,-2.8164,-2.8165,-2.8167,0,0,0,0,0,0,-2.801,-2.8015,-2.8055,-2.8035,-2.8039,-2.8035,-2.8048,-2.8047,-2.8053,-2.8051,-2.805,-2.8046,-2.8051,-2.8054,-2.8084,-2.8106,-2.8061,-2.8063,-2.8162,-2.8164,-2.8166,-2.8204,0,0,0,0,0,0,-2.8009,-2.8015,-2.8031,-2.8035,-2.804,-2.8082,-2.805,-2.8048,-2.8057,-2.8054,-2.8058,-2.8058,-2.805,-2.8081,-2.8086,-2.8108,-2.8065,-2.816,-2.8163,-2.8166,-2.82,-2.8207,-2.8213,0,0,0,0,0,-2.8007,-2.8041,-2.8032,-2.8037,-2.806,-2.8083,-2.8086,-2.8077,-2.8059,-2.8075,-2.8074,-2.8058,-2.8103,-2.8084,-2.8089,-2.8112,-2.8158,-2.8162,-2.8165,-2.8198,-2.8206,-2.8212,0,0,0,0,0,0,-2.8039,-2.8041,-2.8032,-2.8068,-2.8076,-2.8078,-2.8098,-2.8086,-2.8098,-2.8094,-2.8082,-2.8083,-2.8115,-2.8117,-2.8096,-2.8153,-2.8127,-2.8132,-2.815,-2.8158,-2.8164,-2.8162,-2.8066,0,0,0,0,0,-2.805,-2.8069,-2.807,-2.8102,-2.8106,-2.8102,-2.8111,-2.8104,-2.8111,-2.8114,-2.8115,-2.8122,-2.8137,-2.8148,-2.8162,-2.8201,-2.8201,-2.8219,-2.8225,-2.823,-2.8234,-2.8254,-2.8262,-2.8179,-2.8179,-2.8179,0,0,-2.8074,-2.8077,-2.809,-2.8109,-2.8114,-2.8133,-2.8104,-2.8126,-2.814,-2.8117,-2.8144,-2.8146,-2.8153,-2.8187,-2.8202,-2.8189,-2.8257,-2.8235,-2.8239,-2.824,-2.8258,-2.8266,-2.8273,-2.8181,-2.8181,-2.8181,0,0,-2.8126,-2.8131,-2.8158,-2.8164,-2.8172,-2.8169,-2.8176,-2.818,-2.818,-2.8208,-2.8191,-2.8207,-2.8235,-2.8241,-2.8247,-2.8303,-2.8288,-2.8308,-2.8339,-2.8359,-2.8365,-2.8371,-2.8389,-2.8396,-2.8312,-2.8312,-2.8312,0,-2.8154,-2.8182,-2.8173,-2.8196,-2.8204,-2.8186,-2.8212,-2.8218,-2.8231,-2.8237,-2.8223,-2.8257,-2.8261,-2.8295,-2.8309,-2.8315,-2.8322,-2.8306,-2.8365,-2.8371,-2.8376,-2.8393,-2.84,-2.8314,-2.8314,-2.8314,-2.8313,0,-2.8216,-2.8236,-2.8257,-2.827,-2.8281,-2.8305,-2.83,-2.8312,-2.8304,-2.8302,-2.833,-2.8334,-2.8349,-2.8357,-2.8349,-2.8391,-2.8382,-2.8367,-2.8341,-2.8386,-2.8402,-2.8409,-2.8317,-2.8317,-2.8316,-2.8315,0,0,-2.8287,-2.8295,-2.8303,-2.8308,-2.8317,-2.8332,-2.8356,-2.8371,-2.8381,-2.8391,-2.841,-2.8434,-2.842,-2.8427,-2.842,-2.8437,-2.848,-2.8419,-2.8419,-2.8429,-2.8525,-2.8535,-2.8543,-2.8471,-2.8472,-2.8473,-2.8524,0,-2.8338,-2.8379,-2.8372,-2.8412,-2.843,-2.8413,-2.8434,-2.8441,-2.844,-2.8455,-2.8454,-2.8471,-2.8451,-2.8456,-2.8472,-2.8471,-2.8498,-2.8468,-2.8487,-2.8488,-2.8484,-2.8552,-2.8563,-2.861,-2.853,-2.8531,-2.8532,0,-2.8402,-2.8415,-2.8457,-2.8462,-2.8469,-2.8488,-2.8501,-2.8516,-2.8524,-2.8522,-2.8531,-2.852,-2.8543,-2.8519,-2.855,-2.8529,-2.8537,-2.8538,-2.854,-2.854,-2.8512,-2.8552,-2.8625,-2.8632,-2.8542,-2.8541,-2.8541,0,-2.8449,-2.8476,-2.8505,-2.851,-2.8517,-2.8531,-2.8534,-2.8541,-2.855,-2.8562,-2.8567,-2.8581,-2.8589,-2.86,-2.8593,-2.8576,-2.8625,-2.86,-2.8623,-2.8624,-2.8633,-2.8632,-2.8707,-2.8641,-2.8641,-2.8641,-2.8641,0,-2.8506,-2.8532,-2.8526,-2.8543,-2.8571,-2.8563,-2.8591,-2.8593,-2.8599,-2.8616,-2.8602,-2.8618,-2.8609,-2.8624,-2.862,-2.8646,-2.8649,-2.8648,-2.8646,-2.8648,-2.8648,-2.8652,-2.8648,-2.8643,-2.8642,-2.8642,-2.8642,0,-2.8562,-2.8559,-2.8588,-2.8593,-2.8595,-2.8616,-2.8619,-2.8635,-2.8634,-2.8655,-2.866,-2.8658,-2.8675,-2.867,-2.8689,-2.8685,-2.8718,-2.8713,-2.8715,-2.8714,-2.8737,-2.8734,-2.8815,-2.8825,-2.8754,-2.8755,-2.8755,0,-2.8597,-2.8617,-2.8624,-2.8635,-2.8639,-2.8657,-2.8666,-2.8659,-2.867,-2.868,-2.8695,-2.8711,-2.8723,-2.8752,-2.8751,-2.8765,-2.8759,-2.8787,-2.8761,-2.8763,-2.8758,-2.8756,-2.8758,-2.8791,-2.8792,-2.8793,-2.8793,0,-2.8661,-2.8659,-2.8673,-2.8688,-2.87,-2.8711,-2.872,-2.873,-2.8723,-2.8736,-2.8754,-2.8763,-2.8783,-2.8799,-2.8812,-2.8814,-2.8803,-2.8802,-2.8808,-2.8809,-2.881,-2.8808,-2.8728,-2.8799,-2.8799,-2.8798,-2.8798,-2.8798,-2.8707,-2.8723,-2.8731,-2.8748,-2.8754,-2.8764,-2.8779,-2.878,-2.8794,-2.881,-2.8805,-2.8825,-2.8832,-2.8848,-2.8853,-2.8868,-2.8857,-2.8866,-2.8868,-2.887,-2.8873,-2.8809,-2.8871,-2.887,-2.887,-2.887,-2.887,0,-2.8769,-2.8773,-2.8789,-2.8802,-2.8816,-2.8805,-2.8815,-2.8826,-2.8844,-2.8852,-2.8865,-2.8885,-2.89,-2.8902,-2.8916,-2.8928,-2.8923,-2.8932,-2.893,-2.8931,-2.8882,-2.8875,-2.8936,-2.8936,-2.8936,-2.8935,-2.8935,-2.8935,-2.8802,-2.8829,-2.8828,-2.8858,-2.8862,-2.8882,-2.8888,-2.8896,-2.8903,-2.8926,-2.8939,-2.894,-2.8945,-2.8959,-2.8973,-2.8973,-2.8978,-2.8989,-2.8987,-2.8941,-2.8934,-2.8928,-2.8921,-2.8991,-2.8991,-2.9034,-2.9034,-2.9035]},{"header":{"parameterUnit":"m.s-1","parameterCategory":1,"la1":30.2991,"la2":30.254,"lo1":-89.0895,"lo2":-89.0444,"dy":0.0017,"dx":0.0017,"nx":28,"ny":28,"refTime":"2024-05-08T09:00:00:Z","depth":0,"parameterNumber":3,"parameterNumberName":"V-component_of_WINDS"},"data":[0,0,0,0,0,0,0,0,0,0,0,0,0,0,0,0,0,0,0,0,0,0,0,0,0,0,0,0,0,0,0,0,0,0,0,0,0,0,0,0,0,0,0,0,0,0,0,0,0,0,0,0,0,0,0,0,0,0,7.22,7.2202,0,7.2311,7.2312,7.2313,7.2276,7.2274,7.2271,7.2269,7.2374,7.2379,7.2384,0,0,0,0,0,0,0,0,0,0,0,0,0,7.1952,7.1957,7.22,7.2202,7.2203,7.231,7.2312,7.2313,7.2276,7.2274,7.2271,7.2268,7.2372,7.2378,7.2384,0,0,0,0,0,0,0,0,0,0,0,0,0,7.2061,7.1959,7.22,7.2198,7.2199,7.231,7.2312,7.2314,7.2277,7.2274,7.227,7.2267,7.2371,7.2378,7.2385,7.2503,0,0,7.2408,7.2411,0,0,0,0,0,0,0,0,7.2055,7.207,7.2197,7.2198,7.2199,7.2276,7.2263,7.2377,7.2278,7.2247,7.2269,7.2265,7.2344,7.2353,7.2382,7.2508,7.2512,7.2409,7.2413,7.2417,7.2419,0,0,0,0,0,0,0,7.2047,7.2065,7.2244,7.2199,7.22,7.2189,7.2201,7.2284,7.2314,7.225,7.2247,7.2261,7.2344,7.2374,7.2384,7.2514,7.2409,7.2415,7.242,7.2423,7.2744,7.2748,0,0,0,0,0,0,7.204,7.2059,7.224,7.2247,7.2117,7.2197,7.221,7.2255,7.2313,7.2319,7.2264,7.2259,7.2363,7.2375,7.2387,7.253,7.2417,7.2424,7.2428,7.274,7.2745,7.2749,0,0,0,0,0,0,7.2035,7.2056,7.2236,7.2153,7.2175,7.2205,7.2256,7.2259,7.229,7.2324,7.2328,7.229,7.2361,7.2377,7.2476,7.2533,7.2427,7.2434,7.2735,7.2742,7.2747,7.2816,0,0,0,0,0,0,7.2028,7.2055,7.2101,7.2154,7.2179,7.2324,7.226,7.2264,7.2304,7.2298,7.235,7.2355,7.2359,7.2465,7.2483,7.2542,7.244,7.273,7.2738,7.2745,7.2808,7.2823,7.2836,0,0,0,0,0,7.2019,7.2114,7.2104,7.2126,7.2238,7.2327,7.2341,7.2347,7.2308,7.2354,7.2377,7.2353,7.2524,7.2475,7.2495,7.2557,7.2727,7.2736,7.2745,7.2802,7.2821,7.2836,0,0,0,0,0,0,7.2063,7.212,7.211,7.2225,7.2272,7.2321,7.2379,7.2366,7.2423,7.2415,7.2417,7.2429,7.2531,7.2554,7.2498,7.2675,7.2619,7.2633,7.2656,7.2674,7.2687,7.2679,7.2446,0,0,0,0,0,7.2087,7.2157,7.2202,7.2299,7.2324,7.2348,7.2387,7.2388,7.2435,7.2454,7.2483,7.2529,7.2593,7.2635,7.2695,7.2812,7.2823,7.2865,7.2879,7.289,7.2901,7.2966,7.2985,7.2779,7.2779,7.2779,0,0,7.2135,7.2175,7.2219,7.231,7.2346,7.2417,7.2364,7.2441,7.2493,7.2465,7.2561,7.2584,7.2635,7.2744,7.2793,7.2766,7.2961,7.2902,7.291,7.2915,7.2977,7.2996,7.3014,7.2785,7.2784,7.2783,0,0,7.226,7.2298,7.2384,7.2423,7.248,7.2496,7.2517,7.2569,7.2584,7.2681,7.2662,7.2723,7.2833,7.2871,7.2904,7.3047,7.3027,7.3067,7.3138,7.3201,7.3217,7.3232,7.3283,7.3301,7.3078,7.3078,7.3078,0,7.2312,7.2421,7.2429,7.2509,7.2549,7.253,7.2617,7.2653,7.2726,7.2754,7.2723,7.2863,7.2895,7.3013,7.3049,7.3076,7.3099,7.306,7.3215,7.3229,7.3243,7.3292,7.3311,7.3082,7.3082,7.3081,7.3081,0,7.2482,7.2558,7.262,7.2695,7.2742,7.2825,7.2844,7.2891,7.2889,7.2907,7.3007,7.3046,7.3115,7.3143,7.314,7.3261,7.3243,7.3214,7.3158,7.3267,7.3313,7.3331,7.3089,7.3087,7.3086,7.3085,0,0,7.2634,7.2717,7.2739,7.2774,7.2837,7.2895,7.2977,7.3048,7.3088,7.3139,7.3207,7.3303,7.3278,7.3315,7.3316,7.3372,7.3483,7.3336,7.3337,7.3362,7.362,7.3641,7.3663,7.3472,7.3475,7.3478,7.3616,0,7.2764,7.2911,7.2922,7.3054,7.3124,7.3109,7.318,7.3226,7.3246,7.3307,7.3328,7.3396,7.3357,7.338,7.3435,7.3458,7.3535,7.3449,7.3533,7.3536,7.3521,7.3687,7.3709,7.3837,7.3634,7.3637,7.3639,0,7.2935,7.2996,7.3136,7.3192,7.3221,7.3286,7.3353,7.3412,7.3463,7.3474,7.3519,7.3513,7.3596,7.3539,7.3652,7.3594,7.3629,7.3646,7.3651,7.3658,7.3593,7.3698,7.3877,7.3897,7.3667,7.3665,7.3663,0,7.3033,7.3149,7.3249,7.3279,7.3346,7.3392,7.3422,7.3471,7.3513,7.3571,7.3599,7.3665,7.37,7.3751,7.3763,7.372,7.3877,7.382,7.3887,7.3887,7.3919,7.3916,7.4107,7.3943,7.3943,7.3943,7.3942,0,7.3176,7.3262,7.3294,7.3354,7.345,7.3462,7.3556,7.3583,7.3627,7.3692,7.3682,7.3742,7.3755,7.3817,7.3827,7.392,7.3936,7.3946,7.3947,7.3947,7.3946,7.3969,7.396,7.3948,7.3947,7.3946,7.3945,0,7.33,7.3325,7.3432,7.349,7.3506,7.3574,7.3622,7.368,7.37,7.3782,7.3802,7.3833,7.3907,7.3925,7.4011,7.4018,7.4128,7.4121,7.4111,7.4111,7.4177,7.417,7.4388,7.4417,7.4235,7.4237,7.4238,0,7.339,7.3456,7.3522,7.3566,7.3599,7.367,7.3715,7.3729,7.3776,7.3842,7.3892,7.3965,7.4024,7.4143,7.4172,7.4238,7.4232,7.4304,7.4242,7.424,7.4233,7.4229,7.4236,7.4315,7.4317,7.4319,7.432,0,7.3546,7.3556,7.3622,7.3694,7.3749,7.3805,7.3858,7.3895,7.3917,7.3969,7.4047,7.4093,7.4184,7.4256,7.4324,7.4353,7.434,7.434,7.4359,7.4358,7.435,7.4356,7.4143,7.4334,7.4333,7.4332,7.4331,7.4331,7.3655,7.3714,7.3771,7.3846,7.3889,7.394,7.3998,7.4027,7.4093,7.417,7.4174,7.4258,7.4309,7.44,7.4433,7.4498,7.4475,7.4502,7.4509,7.4516,7.4522,7.4342,7.451,7.4509,7.4509,7.4509,7.4508,0,7.3811,7.3848,7.3917,7.3994,7.4053,7.404,7.4099,7.4149,7.4224,7.4274,7.4335,7.4424,7.4495,7.4531,7.4602,7.4647,7.4643,7.4664,7.4661,7.4668,7.4538,7.4514,7.4667,7.4667,7.4667,7.4666,7.4666,7.4666,7.3899,7.3999,7.4016,7.4137,7.4172,7.4257,7.4292,7.4339,7.438,7.4481,7.4542,7.4566,7.4611,7.4685,7.475,7.4759,7.4785,7.4809,7.4815,7.4693,7.4676,7.4661,7.4639,7.4815,7.4815,7.494,7.4941,7.4942]}]]